Погода в Перми

Погода в Перми : погода сейчас, прогноз погоды и архив. Всё, что Вы хотите узнать о погоде в Перми!

Хотите узнать прогноз погоды в Перми? Тогда Вам сюда: Погода в Перми

Поиск расширенной информации на нашем сайте:

Другие новости

Новости СМИ2

Главная страница сайта

Новости сайта

03.07.2017

Напоминаем, что на нашем специализированном сайте Метеоцентр.Азия вы можете получить высокодетализированные автоматические прогнозы погоды по пунктам России, СНГ и мира в авиационном формате (включающие направление и скорость ветра, видимость, явления погоды, количество и форму облачности, нижнюю и верхнюю границу облачности).


Погода в Перми - сегодня

Время (UTC), дата Ветер
(°,м/с) 
Видим.   Явления Облачность Т
(°С)
Тd
(°С)
f(%) Тe
(°С)
Pmin
(гПа)
dP
(гПа)
Po
(мм)
O2
(г/м3)
Тmin Tmax R s Состояние
почвы
21 21.09.18 170 (Ю) 20000 м    3/0 верхняя 
[Ci fib]
+3.1 +2.1 93 +4  1015.8  0.4  746  297           
00 22.09.18 160 (Ю) 20000 м    8/8 600 м 
[Sc]
+3.8 +2.8 93 +5  1015.7  746  296           
03 22.09.18 тихо ()   20000 м    10/10 600 м 
[Sc]
+6.3 +5.1 92 +6  1016.4  0.8  747  293  +2.2        влажная 
06 22.09.18 260 (З) 20000 м    10/10 600 м 
[Sc]
+9.6 +7.6 87 +11  1016.6  0.5  747  289           
09 22.09.18 210 (ЮЗ) 4000 м  слаб. дождь  10/10 200 м 
[Frnb|Ns]
+11.2 +9.7 90 +13  1016.4  0.1  747  287           
12 22.09.18 240 (ЮЗ) 10 км  в посл. час дождь  10/9 300 м средняя 
[Sc|As op]
+13 +11.2 89 +17  1015.9  -0.3  747  285           
18 22.09.18 тихо ()   0500 м  туман  10/10 100 м 
[St]
+9.4 +8.3 93 +9  1017.5  0.6  748  290           
21 22.09.18 140 (ЮВ) 0200 м  туман  ?/?  
+9.7 +8.7 93 +11  1018  0.5  748  290           
00 23.09.18 140 (ЮВ) 0200 м  туман  ?/?  
+10 +9.1 94 +11  1018.6  0.6  748  289           
03 23.09.18 160 (Ю) 0500 м  туман  н/о 
+10.1 +9.2 94 +10  1018.9  0.3  749  289  +7.8        влажная 
06 23.09.18 150 (ЮВ) 4000 м  в посл. час туман  10/10 200 м 
[St]
+12.5 +11.6 94 +16  1018.7  749  286           
09 23.09.18 160 (Ю) 20000 м    4/3 1000 м верхняя 
[Sc|Ci fib]
+17.9 +13.1 73 +24  1017.7  -0.6  748  280           
12 23.09.18 170 (Ю) 20000 м    3/3 600 м верхняя 
[Sc|Ci fib]
+19.2 +13.5 70 +26  1016.4  -1.1  747  279           
15 23.09.18 160 (Ю) 20000 м    ясно 
+14.9 +12.6 86 +20  1016.1  -0.5  747  283    +19.8       
18 23.09.18 170 (Ю) 20000 м    ясно 
+13.8 +11.7 87 +18  1015.6  -0.6  746  284           
21 23.09.18 150 (ЮВ) 20000 м    ясно 
+12.8 +11 89 +16  1015  -0.6  746  285           
00 24.09.18 170 (Ю) 20000 м    ясно 
+13.3 +11.3 88 +17  1014.1  -0.9  745  284           
03 24.09.18 150 (ЮВ) 20000 м    8/8 600 м 
[Sc]
+12.7 +10.9 89 +15  1014  -0.2  745  285  +12.3        сухая 
06 24.09.18 160 (Ю) 20000 м    3/1 2000 м средняя, верхняя 
[Ac trans|Ci fib]
+17.6 +12.1 70 +22  1013.4  -0.3  745  280           
09 24.09.18 190 (Ю) 20000 м    ясно 
+22 +10.7 49 +24  1012.4  -0.7  744  276           
12 24.09.18 180 (Ю) 4{10}  20000 м    ясно 
+22.5 +6.7 36 +23  1011.9  -0.4  744  276           
18 24.09.18 160 (Ю) 20000 м    3/0 верхняя 
[Ci]
+15.8 +11.1 74 +19  1012.8  0.2  745  282           
21 24.09.18 170 (Ю) 20000 м    5/0 верхняя 
[Cs]
+14.5 +11.1 80 +17  1012.6  -0.3  744  283           
00 25.09.18 160 (Ю) 20000 м    5/0 верхняя 
[Cc]
+12.7 +9.8 82 +14  1012.7  0.1  744  285           
03 25.09.18 150 (ЮВ) 20000 м    10/4 2000 м средняя, верхняя 
[Ac As|Cc]
+12.3 +9.5 83 +13  1012.4  -0.3  744  285  +11.3        сухая 
Время (UTC), дата Ветер
(°,м/с) 
Видим.   Явления Облачность Т
(°С)
Тd
(°С)
f(%) Тe
(°С)
Pmin
(гПа)
dP
(гПа)
Po
(мм)
O2
(г/м3)
Тmin Tmax R s Состояние
почвы

Для получения пояснительной информации подведите курсор к названию столбца.

ПОГОДА в Перми - архив

Всё, что Вы хотите узнать о погоде в Перми - удобно и подробно!

Выберите нужную дату (начиная с 1 января 2015* года) и нажмите кнопку "Найти".
Будут отображены архивные сводки погоды по пункту Пермь, начиная с указанной даты.


Отображать данные в формате CSV (для использования в таблицах Excel)


Внимание! Наш архив погоды предназначен исключительно для личного некоммерческого использования в познавательных целях. Если Вам необходимы официальные справки о состоянии погоды (для производственных, юридических, коммерческих и т.п. целей), обращайтесь в органы Росгидромета.

*Примечание: данная дата относится к архиву по метеостанциям СССР (Россия, СНГ, Балтия).
Архив по метеостанциям Зарубежной Европы и Азии (кроме Китая) хранится 10 дней, по другим регионам земного шара (Китай, Африка, Америка, Австралия, Океания) - 1 день.

Пермь - район местоположения метеостанции


Название, широта, долгота, высота метеостанции:
Пермь (город) 58°ш. 56.3°д. 171 м над ур. моря [Российская Федерация]

Дополнительная информация

В oтличие oт бoльшинства пoгoдных сайтoв мы публикуем пoдрoбную метеoинфoрмацию в детальнoм прoфессиoнальнoм фoрмате.

Характеристики температуры и влажнoсти вoздуха измеряются на высoте 2 м в тени вдали oт зданий и деревьев.
Скoрoсть ветра измеряется на высoте 10 м (на урoвне рoста челoвека скoрoсть ветра ниже в 1.5-2 раза). Если метеoстанция нахoдится в гoрoде или в лесу, тo скoрoсть ветра занижена на 2-4 м/с пo сравнению с oткрытым местoм. Скoрoсть ветра над акватoриями крупных рек и oзёр, а также на вершинах хoлмoв на 2-5 м/с выше, чем в oбычных услoвиях.
Атмoсфернoе давление в разных тoчках местнoсти мoжет значительнo oтличаться oт давления на метеoстанции, в зависимoсти oт услoвий рельефа (при пoдъёме на 10 м давление пoнижается примернo на 1 мм рт.ст.).